Change the Weather History Date:

Thursday, July 11, 2013

  Actual Average Record
Temperature  
Mean Temperature 67 °F -  
Max Temperature 77 °F 65 °F 82 °F (2005)
Min Temperature 57 °F 49 °F 44 °F (2000)
Cooling Degree Days 2    
Growing Degree Days 17 (Base 50)    
Moisture  
Dew Point 59 °F    
Average Humidity 76    
Maximum Humidity 94    
Minimum Humidity 64    
Precipitation  
Precipitation 0.00 in - - ()
Sea Level Pressure  
Sea Level Pressure 30.31 in    
Wind  
Wind Speed 6 mph ()    
Max Wind Speed 12 mph    
Max Gust Speed -    
Visibility 6.1 miles    
Events      
Averages and records for this station are not official NWS values.
T = Trace of Precipitation, MM = Missing Value Source: Averaged Metar Reports

Daily Weather History Graph

Daily Weather History Graph

Search for Another Location

Airport or City:

Trip Planner

Search our weather history database for the weather conditions in past years. The results will help you decide how hot, cold, wet, or windy it might be!

Date:

Astronomy

Jul. 11, 2013 Rise Set
Actual Time 4:48 AM BST 9:57 PM BST
Civil Twilight 3:50 AM BST 10:54 PM BST
Nautical Twilight 1:32 AM BST 1:00 AM BST
Astronomical Twilight Sun does not rise Sun does not rise
Moon 8:38 AM BST (7/11) 10:39 PM BST (7/11)
Length of Visible Light 19h 03m
Length of Day
17h 09m
Waxing Crescent, 9% of the Moon is Illuminated
Jul 11
Waxing Crescent
Jul 16
First Quarter
Jul 22
Full
Jul 29
Last Quarter
Aug 6
New

Hourly Weather History & Observations

Time (BST) Temp. Dew Point Humidity Pressure Visibility Wind Dir Wind Speed Gust Speed Precip Events Conditions
12:20 AM 59.0 °F 53.6 °F 82% 30.36 in 6.2 mi ENE 9.2 mph - N/A   Scattered Clouds
12:50 AM 59.0 °F 53.6 °F 82% 30.36 in 6.2 mi ENE 8.1 mph - N/A   Mostly Cloudy
1:20 AM 57.2 °F 53.6 °F 88% 30.36 in 6.2 mi ENE 6.9 mph - N/A   Mostly Cloudy
1:50 AM 57.2 °F 51.8 °F 82% 30.36 in 6.2 mi Variable 3.5 mph - N/A   Mostly Cloudy
2:20 AM 57.2 °F 53.6 °F 88% 30.36 in 6.2 mi ENE 4.6 mph - N/A   Overcast
2:50 AM 59.0 °F 53.6 °F 82% 30.36 in 6.2 mi East 5.8 mph - N/A   Overcast
3:20 AM 59.0 °F 53.6 °F 82% 30.36 in 6.2 mi ENE 5.8 mph - N/A   Mostly Cloudy
3:50 AM 59.0 °F 53.6 °F 82% 30.36 in 6.2 mi ENE 5.8 mph - N/A   Mostly Cloudy
4:20 AM 59.0 °F 53.6 °F 82% 30.36 in 6.2 mi ENE 5.8 mph - N/A   Mostly Cloudy
4:50 AM 59.0 °F 53.6 °F 82% 30.36 in 6.2 mi ENE 6.9 mph - N/A   Mostly Cloudy
5:20 AM 59.0 °F 53.6 °F 82% 30.36 in 6.2 mi ENE 5.8 mph - N/A   Mostly Cloudy
5:50 AM 59.0 °F 53.6 °F 82% 30.33 in 6.2 mi ENE 5.8 mph - N/A   Mostly Cloudy
6:20 AM 59.0 °F 53.6 °F 82% 30.33 in 6.2 mi ENE 6.9 mph - N/A   Mostly Cloudy
6:50 AM 59.0 °F 53.6 °F 82% 30.33 in 6.2 mi ENE 5.8 mph - N/A   Mostly Cloudy
7:20 AM 60.8 °F 55.4 °F 82% 30.33 in 6.2 mi NE 4.6 mph - N/A   Mostly Cloudy
7:50 AM 60.8 °F 55.4 °F 82% 30.33 in 6.2 mi NE 4.6 mph - N/A   Mostly Cloudy
8:20 AM 60.8 °F 55.4 °F 82% 30.33 in 6.2 mi NNE 4.6 mph - N/A   Mostly Cloudy
8:50 AM 62.6 °F 55.4 °F 77% 30.33 in 6.2 mi Variable 3.5 mph - N/A   Mostly Cloudy
9:20 AM 64.4 °F 55.4 °F 73% 30.33 in 6.2 mi Variable 2.3 mph - N/A   Mostly Cloudy
9:50 AM 66.2 °F 57.2 °F 73% 30.33 in 6.2 mi Variable 2.3 mph - N/A   Mostly Cloudy
10:20 AM 68.0 °F 57.2 °F 68% 30.33 in 6.2 mi Variable 3.5 mph - N/A   Scattered Clouds
10:50 AM 69.8 °F 59.0 °F 68% 30.33 in 6.2 mi Variable 2.3 mph - N/A   Partly Cloudy
11:20 AM 71.6 °F 59.0 °F 64% 30.33 in - ESE 4.6 mph - N/A   Clear
11:50 AM 73.4 °F 60.8 °F 65% 30.30 in - Variable 2.3 mph - N/A   Clear
12:20 PM 73.4 °F 62.6 °F 69% 30.30 in - WNW 4.6 mph - N/A   Clear
12:50 PM 75.2 °F 62.6 °F 65% 30.30 in 6.2 mi West 4.6 mph - N/A   Partly Cloudy
1:20 PM 75.2 °F 62.6 °F 65% 30.30 in 6.2 mi West 6.9 mph - N/A   Scattered Clouds
1:50 PM 75.2 °F 62.6 °F 65% 30.30 in 6.2 mi WSW 4.6 mph - N/A   Scattered Clouds
2:20 PM 77.0 °F 64.4 °F 65% 30.30 in 6.2 mi WSW 6.9 mph - N/A   Scattered Clouds
2:50 PM 77.0 °F 64.4 °F 65% 30.30 in 6.2 mi SW 9.2 mph - N/A   Scattered Clouds
3:20 PM 77.0 °F 64.4 °F 65% 30.27 in 6.2 mi SW 9.2 mph - N/A   Partly Cloudy
3:50 PM 77.0 °F 64.4 °F 65% 30.27 in 6.2 mi WSW 6.9 mph - N/A   Partly Cloudy
4:20 PM 77.0 °F 64.4 °F 65% 30.27 in 6.2 mi West 6.9 mph - N/A   Partly Cloudy
4:50 PM 77.0 °F 64.4 °F 65% 30.27 in 6.2 mi SW 9.2 mph - N/A   Partly Cloudy
5:20 PM 75.2 °F 64.4 °F 69% 30.27 in - SW 10.4 mph - N/A   Clear
5:50 PM 75.2 °F 64.4 °F 69% 30.27 in - WSW 9.2 mph - N/A   Clear
6:20 PM 75.2 °F 64.4 °F 69% 30.27 in - WSW 9.2 mph - N/A   Clear
6:50 PM 73.4 °F 64.4 °F 73% 30.24 in - SW 11.5 mph - N/A   Clear
7:20 PM 73.4 °F 64.4 °F 73% 30.24 in - SW 10.4 mph - N/A   Clear
7:50 PM 71.6 °F 64.4 °F 78% 30.24 in - WSW 8.1 mph - N/A   Clear
8:20 PM 71.6 °F 64.4 °F 78% 30.24 in - WSW 8.1 mph - N/A   Clear
8:50 PM 69.8 °F 64.4 °F 83% 30.24 in - SW 6.9 mph - N/A   Clear
9:20 PM 68.0 °F 62.6 °F 83% 30.24 in - WSW 5.8 mph - N/A   Clear
9:50 PM 66.2 °F 60.8 °F 83% 30.27 in - WSW 6.9 mph - N/A   Clear
10:20 PM 64.4 °F 60.8 °F 88% 30.27 in - WSW 5.8 mph - N/A   Clear
10:50 PM 62.6 °F 60.8 °F 94% 30.27 in - West 6.9 mph - N/A   Clear
11:20 PM 62.6 °F 59.0 °F 88% 30.27 in 5.0 mi West 5.8 mph - N/A   Unknown
11:50 PM 60.8 °F 59.0 °F 94% 30.27 in 4.3 mi WSW 9.2 mph - N/A   Unknown